{"data":{"norad_id":47202,"epoch":"2026-09-20T01:57:22.127040Z","epoch_age_seconds":58050,"freshness":"FRESH","line1":"1 47202U 20089A   26263.08150610 -.00000240  00000+0  00000+0 0  9999","line2":"2 47202   0.0362 284.4548 0002150 265.9216 288.7564  1.00271893 21376","mean_motion":1.00271893,"eccentricity":0.000215,"inclination_deg":0.0362,"raan_deg":284.4548,"arg_perigee_deg":265.9216,"mean_anomaly_deg":288.7564,"bstar":0,"rev_number":2137,"period_min":1436.0953572503,"perigee_km":35777.499274035,"apogee_km":35795.63009576,"semimajor_km":42164.701684897,"source":"CELESTRAK","updated_at":"2026-09-20T09:00:35.296267Z"}}